Stations météo

réclame
Mon MeteoGroup
Alencon, France (7139): Température de l'air & dewpoint: 10.07.2018 12:00:00 - 16.07.2018 12:00:00 (CEST)Alencon, France (7139): Température de l'air 5cm: 10.07.2018 12:00:00 - 16.07.2018 12:00:00 (CEST)Alencon, France (7139): Température de l'air -20cm & Température de l'air -100cm: 10.07.2018 12:00:00 - 16.07.2018 12:00:00 (CEST)Alencon, France (7139): Vitesse du vent & gusts: 10.07.2018 12:00:00 - 16.07.2018 12:00:00 (CEST)Alencon, France (7139): Direction du vent: 10.07.2018 12:00:00 - 16.07.2018 12:00:00 (CEST)Alencon, France (7139): reduced air pressure: 10.07.2018 12:00:00 - 16.07.2018 12:00:00 (CEST)Alencon, France (7139): visibility: 10.07.2018 12:00:00 - 16.07.2018 12:00:00 (CEST)Alencon, France (7139): Ensoleillement: 10.07.2018 12:00:00 - 16.07.2018 12:00:00 (CEST)Alencon, France (7139): Quantités de précipitations: 10.07.2018 12:00:00 - 16.07.2018 12:00:00 (CEST)
Date & Time tt [°C] td [°C] tt 5cm [°C] tt -20cm [°C] tt -100cm [°C] ff [km/h] ff [knt] fx [km/h] fx [knt] dd ppp [hPa] vv [km] sd [min] rr [mm]
16.07.2018 12:00:00 - - - - - - - - - - - - - -
16.07.2018 11:00:00 24,6 10,5 29,4 20,2 18,3 11 6 19 11 NNE 1014,3 20 60 0,0
16.07.2018 10:00:00 22,6 10,7 24,0 20,3 18,3 13 7 19 10 NE 1014,4 20 58 0,0
16.07.2018 09:00:00 20,4 11,3 19,3 20,4 18,3 12 6 18 10 NE 1014,5 20 60 0,0
16.07.2018 08:00:00 17,3 12,6 13,8 20,5 18,3 7 4 12 7 E 1014,5 20 60 0,0
16.07.2018 07:00:00 15,0 11,4 10,7 20,6 18,3 5 3 9 5 E 1014,8 20 18 0,0
16.07.2018 06:00:00 14,6 10,6 10,4 20,7 18,3 3 2 8 4 E 1014,6 19 0 0,0
16.07.2018 05:00:00 14,9 10,7 10,1 20,8 18,3 4 2 5 3 ESE 1014,7 20 0 0,0
16.07.2018 04:00:00 15,8 10,5 11,4 21,0 18,3 2 1 7 4 S 1014,9 20 0 0,0
16.07.2018 03:00:00 16,9 10,7 11,7 21,1 18,3 6 3 8 4 E 1015,0 20 0 0,0
16.07.2018 02:00:00 16,9 10,7 12,0 21,2 18,3 3 2 11 6 N 1015,3 20 0 0,0
16.07.2018 01:00:00 18,2 10,8 14,6 21,3 18,3 3 2 13 7 ENE 1015,7 20 0 0,0
16.07.2018 00:00:00 19,0 10,5 15,6 21,5 18,3 7 4 11 6 E 1015,6 20 0 0,0
15.07.2018 23:00:00 20,3 11,0 15,6 21,5 18,3 4 2 19 11 NE 1015,3 20 0 0,0
15.07.2018 22:00:00 22,0 11,4 19,9 21,5 18,3 13 7 26 14 N 1014,8 20 29 0,0
15.07.2018 21:00:00 23,8 13,1 22,9 21,5 18,3 14 8 26 14 NNE 1014,2 20 42 0,0
15.07.2018 20:00:00 25,6 14,7 24,8 21,5 18,3 16 8 28 15 N 1013,7 20 0 0,0
15.07.2018 19:00:00 26,5 14,9 25,0 21,3 18,3 12 7 20 11 N 1013,1 20 0 0,0
15.07.2018 18:00:00 29,9 15,2 34,3 21,1 18,3 12 6 19 11 N 1013,1 20 55 0,0
15.07.2018 17:00:00 28,9 13,6 29,9 20,9 18,3 6 3 17 9 NNE 1013,6 20 37 0,0
15.07.2018 16:00:00 28,9 14,3 38,4 20,7 18,3 5 3 20 11 NW 1014,0 20 60 0,0
15.07.2018 15:00:00 28,1 13,6 38,0 20,4 18,3 6 3 18 10 ENE 1014,5 20 60 0,0
15.07.2018 14:00:00 27,4 13,7 37,1 20,3 18,3 5 3 18 10 N 1015,0 20 60 0,0
15.07.2018 13:00:00 26,4 13,5 33,2 20,2 18,3 7 4 20 11 NE 1015,5 20 60 0,0
15.07.2018 12:00:00 24,1 14,2 30,4 20,2 18,3 13 7 22 12 ENE 1016,3 20 60 0,0
15.07.2018 11:00:00 22,6 14,4 24,1 20,2 18,3 13 7 19 11 NE 1016,4 20 46 0,0
15.07.2018 10:00:00 19,1 13,3 19,5 20,2 18,3 9 5 18 10 NE 1016,8 20 4 0,0
15.07.2018 09:00:00 17,9 12,6 16,5 20,3 18,3 8 4 14 8 NE 1016,8 20 0 0,0
15.07.2018 08:00:00 17,0 12,7 14,2 20,4 18,3 9 5 16 9 ENE 1016,9 20 0 0,0
15.07.2018 07:00:00 15,4 12,9 13,8 20,5 18,3 4 2 13 7 NE 1016,8 17 0 0,0
15.07.2018 06:00:00 15,2 12,9 13,9 20,6 18,3 10 5 15 8 E 1016,5 15 0 0,0
15.07.2018 05:00:00 16,1 12,6 14,3 20,7 18,3 7 4 17 9 E 1016,8 20 0 0,0
15.07.2018 04:00:00 17,8 12,3 13,1 20,8 18,3 10 5 16 9 NE 1016,9 20 0 0,0
15.07.2018 03:00:00 17,2 12,5 14,1 20,9 18,3 5 3 16 8 ENE 1017,3 20 0 0,0
15.07.2018 02:00:00 19,3 12,3 16,9 21,0 18,3 10 5 16 9 NE 1017,5 20 0 0,0
15.07.2018 01:00:00 19,3 12,8 15,6 21,1 18,3 6 3 15 8 NE 1018,0 20 0 0,0
15.07.2018 00:00:00 20,5 13,2 17,0 21,2 18,3 9 5 19 11 NNE 1017,7 20 0 0,0
14.07.2018 23:00:00 21,0 13,4 18,2 21,2 18,3 12 7 22 12 NNE 1017,5 20 0 0,0
14.07.2018 22:00:00 21,9 13,8 19,3 21,3 18,3 13 7 30 16 N 1017,0 20 30 0,0
14.07.2018 21:00:00 23,8 14,5 23,5 21,2 18,3 19 11 31 17 N 1016,7 20 60 0,0
14.07.2018 20:00:00 26,1 15,5 28,5 21,1 18,3 19 11 29 16 N 1016,4 20 60 0,0
14.07.2018 19:00:00 28,3 12,6 26,4 21,0 18,3 10 6 16 9 N 1016,3 20 38 0,0
14.07.2018 18:00:00 28,2 13,3 28,0 20,8 18,3 10 5 16 8 NNE 1016,6 20 31 0,0
14.07.2018 17:00:00 27,0 13,4 28,0 20,7 18,3 7 4 14 8 N 1017,0 20 19 0,0
14.07.2018 16:00:00 28,1 14,3 30,3 20,5 18,3 7 4 17 9 E 1017,5 20 29 0,0
14.07.2018 15:00:00 27,9 15,2 28,9 20,2 18,3 4 2 18 10 WNW 1017,9 20 40 0,0
14.07.2018 14:00:00 27,2 15,6 34,3 20,1 18,3 9 5 19 10 NNE 1018,4 20 49 0,0
14.07.2018 13:00:00 26,1 15,2 34,7 20,0 18,3 9 5 23 12 NE 1018,8 20 60 0,0
14.07.2018 12:00:00 24,8 14,9 31,5 19,9 18,3 11 6 22 12 NE 1019,4 19 60 0,0
14.07.2018 11:00:00 22,7 15,5 27,9 19,9 18,3 11 6 19 10 ENE 1019,8 20 60 0,0
14.07.2018 10:00:00 20,5 14,8 26,1 19,9 18,3 11 6 19 10 ENE 1019,9 20 60 0,0
14.07.2018 09:00:00 19,1 14,4 21,0 20,0 18,3 13 7 19 11 NNE 1020,1 20 60 0,0
14.07.2018 08:00:00 17,0 14,1 13,3 20,1 18,3 7 4 11 6 ENE 1020,2 19 60 0,0
14.07.2018 07:00:00 14,3 12,8 10,6 20,2 18,3 5 3 8 5 E 1020,2 15 20 0,0
14.07.2018 06:00:00 13,9 12,5 9,3 20,3 18,3 6 3 8 4 ENE 1020,2 19 0 0,0
14.07.2018 05:00:00 14,3 12,3 11,4 20,4 18,3 5 3 10 5 NE 1020,5 20 0 0,0
14.07.2018 04:00:00 15,4 12,5 11,5 20,5 18,3 4 2 7 4 ESE 1020,5 20 0 0,0
14.07.2018 03:00:00 15,9 12,6 11,4 20,6 18,3 3 2 8 4 E 1020,7 20 0 0,0
14.07.2018 02:00:00 17,2 12,9 13,8 20,7 18,3 5 3 10 6 SE 1020,7 20 0 0,0
14.07.2018 01:00:00 18,0 13,1 14,9 20,8 18,3 7 4 17 9 NE 1020,8 20 0 0,0
14.07.2018 00:00:00 19,3 13,0 16,3 20,9 18,3 10 6 18 10 N 1020,7 20 0 0,0
13.07.2018 23:00:00 20,0 13,2 17,0 20,9 18,3 13 7 19 10 N 1020,5 20 0 0,0
13.07.2018 22:00:00 21,3 14,2 18,3 20,9 18,3 11 6 18 10 N 1019,7 20 30 0,0
13.07.2018 21:00:00 23,3 14,6 22,2 20,9 18,3 11 6 19 10 N 1019,0 19 36 0,0
13.07.2018 20:00:00 25,1 13,6 26,6 20,8 18,3 14 7 21 12 NNE 1018,6 20 58 0,0
13.07.2018 19:00:00 26,7 13,1 26,1 20,7 18,3 9 5 18 10 N 1018,7 20 40 0,0
13.07.2018 18:00:00 27,1 13,4 31,9 20,6 18,3 5 3 21 11 N 1018,8 20 55 0,0
13.07.2018 17:00:00 26,4 12,8 30,3 20,5 18,3 12 7 22 12 NNE 1019,1 20 40 0,0
13.07.2018 16:00:00 25,9 14,7 25,8 20,4 18,3 14 7 23 12 N 1019,5 20 16 0,0
13.07.2018 15:00:00 23,9 14,0 25,0 20,2 18,3 14 8 21 11 NNW 1020,0 20 3 0,0
13.07.2018 14:00:00 25,3 13,8 29,3 20,0 18,3 8 4 18 10 ENE 1020,1 20 25 0,0
13.07.2018 13:00:00 24,8 14,6 32,4 19,9 18,3 10 5 22 12 ENE 1020,3 20 51 0,0
13.07.2018 12:00:00 24,1 16,4 29,6 19,8 18,3 9 5 18 10 N 1020,2 19 55 0,0
13.07.2018 11:00:00 22,1 15,2 28,8 19,8 18,3 8 4 20 11 NE 1020,4 17 60 0,0
13.07.2018 10:00:00 20,4 15,0 20,6 19,8 18,3 10 5 18 10 NNE 1020,6 17 16 0,0
13.07.2018 09:00:00 18,4 14,7 18,1 19,8 18,3 9 5 18 10 NNE 1020,9 15 0 0,0
13.07.2018 08:00:00 17,5 14,6 16,4 19,9 18,3 8 4 12 7 NE 1020,4 16 0 0,0
13.07.2018 07:00:00 17,1 14,4 15,8 20,0 18,3 7 4 11 6 NE 1020,3 19 0 0,0
13.07.2018 06:00:00 17,1 14,2 15,8 20,0 18,3 5 3 12 7 NE 1020,5 19 0 0,0
13.07.2018 05:00:00 17,4 14,1 16,2 20,0 18,3 6 4 16 8 NE 1020,4 20 0 0,0
13.07.2018 04:00:00 18,0 14,1 16,8 20,1 18,3 11 6 18 10 NNE 1020,5 20 0 0,0
13.07.2018 03:00:00 18,2 13,5 17,0 20,2 18,3 10 5 19 10 NE 1020,5 20 0 0,0
13.07.2018 02:00:00 18,5 13,6 17,2 20,2 18,3 11 6 19 11 NNE 1020,5 20 0 0,0
13.07.2018 01:00:00 19,0 13,4 17,4 20,3 18,3 11 6 18 10 NNE 1020,5 20 0 0,0
13.07.2018 00:00:00 19,2 13,6 17,5 20,3 18,3 8 5 16 9 NNE 1020,5 20 0 0,0
12.07.2018 23:00:00 19,7 13,6 17,9 20,4 18,3 11 6 19 11 NNE 1020,2 20 0 0,0
12.07.2018 22:00:00 20,1 14,0 18,3 20,4 18,3 11 6 20 11 N 1019,7 20 0 0,0
12.07.2018 21:00:00 21,0 13,9 19,9 20,4 18,3 11 6 22 12 N 1019,6 20 0 0,0
12.07.2018 20:00:00 21,8 13,9 21,9 20,3 18,4 11 6 17 9 N 1019,4 20 0 0,0
12.07.2018 19:00:00 22,6 12,8 23,5 20,2 18,3 9 5 15 8 N 1019,3 20 0 0,0
12.07.2018 18:00:00 23,0 12,0 24,9 20,2 18,3 9 5 16 9 ENE 1019,3 20 0 0,0
12.07.2018 17:00:00 23,2 12,5 25,3 20,1 18,4 13 7 20 11 NE 1019,5 20 0 0,0
12.07.2018 16:00:00 22,5 12,1 23,9 20,0 18,4 11 6 22 12 NE 1019,6 20 0 0,0
12.07.2018 15:00:00 22,5 12,7 24,1 20,0 18,4 11 6 24 13 N 1019,7 20 0 0,0
12.07.2018 14:00:00 21,7 13,1 23,6 19,8 18,3 13 7 23 12 NNE 1020,0 20 0 0,0
12.07.2018 13:00:00 21,9 13,3 26,1 19,8 18,4 10 5 26 14 NNE 1019,8 20 27 0,0
12.07.2018 12:00:00 20,8 13,5 26,8 19,7 18,4 10 5 23 12 NNE 1020,0 19 60 0,0
12.07.2018 11:00:00 19,0 13,4 22,2 19,7 18,4 11 6 19 10 NNE 1020,1 20 19 0,0
12.07.2018 10:00:00 18,0 13,1 22,4 19,7 18,3 12 7 19 10 ENE 1020,4 18 52 0,0
12.07.2018 09:00:00 16,4 12,9 19,7 19,8 18,4 12 7 20 11 NE 1020,4 16 55 0,0
12.07.2018 08:00:00 15,1 13,0 12,9 19,9 18,4 9 5 14 8 NE 1020,1 13 58 0,0
12.07.2018 07:00:00 13,4 12,1 11,9 20,0 18,4 8 4 17 9 ENE 1020,1 12 17 0,0
12.07.2018 06:00:00 13,3 12,0 11,7 20,0 18,4 6 3 13 7 NE 1019,9 16 0 0,0
12.07.2018 05:00:00 13,3 11,9 11,4 20,1 18,4 8 4 13 7 NE 1019,7 19 0 0,0
12.07.2018 04:00:00 13,1 11,8 10,3 20,2 18,4 5 3 12 6 ENE 1019,9 20 0 0,0
12.07.2018 03:00:00 13,0 11,6 10,0 20,4 18,4 9 5 11 6 NE 1020,0 20 0 0,0
12.07.2018 02:00:00 14,1 11,8 11,4 20,5 18,4 7 4 14 8 NE 1020,1 20 0 0,0
12.07.2018 01:00:00 15,2 12,1 13,2 20,6 18,4 10 5 17 9 NE 1019,8 20 0 0,0
12.07.2018 00:00:00 15,9 12,3 13,1 20,6 18,4 9 5 15 8 NNE 1019,8 20 0 0,0
11.07.2018 23:00:00 17,5 12,8 14,9 20,7 18,4 10 5 19 10 NNE 1019,7 20 0 0,0
11.07.2018 22:00:00 18,8 13,4 16,4 20,7 18,4 12 6 22 12 N 1018,9 20 23 0,0
11.07.2018 21:00:00 20,9 13,3 20,7 20,6 18,4 15 8 27 15 N 1018,8 20 56 0,0
11.07.2018 20:00:00 22,3 13,1 22,4 20,6 18,4 11 6 23 13 N 1018,5 20 42 0,0
11.07.2018 19:00:00 23,0 12,0 22,9 20,5 18,4 14 8 22 12 NNE 1018,6 20 43 0,0
11.07.2018 18:00:00 22,3 11,4 23,2 20,4 18,4 13 7 21 11 NNE 1018,8 20 13 0,0
11.07.2018 17:00:00 22,4 11,2 24,5 20,3 18,4 14 8 23 13 NNE 1019,1 20 6 0,0
11.07.2018 16:00:00 22,6 12,5 26,1 20,2 18,4 11 6 23 12 NNE 1019,4 20 26 0,0
11.07.2018 15:00:00 21,6 10,4 24,4 20,1 18,4 10 5 24 13 NE 1019,9 20 23 0,0
11.07.2018 14:00:00 20,8 11,1 23,3 20,0 18,4 11 6 24 13 NNE 1020,2 20 9 0,0
11.07.2018 13:00:00 20,1 11,3 21,9 20,0 18,4 16 8 27 14 ENE 1020,5 20 8 0,0
11.07.2018 12:00:00 19,5 12,0 21,4 20,0 18,4 14 8 25 14 ENE 1020,7 20 19 0,0
11.07.2018 11:00:00 18,1 12,3 18,6 20,0 18,4 12 6 19 11 NE 1021,0 20 0 0,0
11.07.2018 10:00:00 17,3 12,6 19,5 20,0 18,4 9 5 17 9 NNE 1021,1 20 17 0,0
11.07.2018 09:00:00 16,4 12,0 16,8 20,1 18,4 7 4 19 11 NE 1021,4 20 6 0,0
11.07.2018 08:00:00 15,5 11,7 13,5 20,2 18,4 10 5 16 9 NE 1021,1 20 0 0,0
11.07.2018 07:00:00 13,8 11,3 12,1 20,3 18,4 4 2 9 5 NNE 1021,1 20 0 0,0
11.07.2018 06:00:00 12,6 10,3 6,8 20,4 18,4 0 0 7 4 N 1021,2 6 0 0,0
11.07.2018 05:00:00 11,9 9,5 6,9 20,5 18,4 3 2 6 4 ENE 1021,5 20 0 0,0
11.07.2018 04:00:00 12,2 9,4 6,7 20,7 18,4 5 3 8 4 ESE 1021,4 20 0 0,0
11.07.2018 03:00:00 12,5 9,5 8,1 20,8 18,3 3 1 12 7 ESE 1021,3 20 0 0,0
11.07.2018 02:00:00 13,0 9,6 10,6 20,9 18,4 8 5 14 8 NE 1021,2 20 0 0,0
11.07.2018 01:00:00 13,8 9,4 11,5 21,0 18,3 9 5 18 10 NE 1021,3 20 0 0,0
11.07.2018 00:00:00 14,5 9,5 12,0 21,2 18,4 12 7 18 10 NNE 1021,2 20 0 0,0
10.07.2018 23:00:00 15,4 9,7 12,6 21,2 18,3 10 5 20 11 NNE 1021,0 20 0 0,0
10.07.2018 22:00:00 17,4 9,6 14,3 21,3 18,4 12 6 22 12 N 1020,3 20 0 0,0
10.07.2018 21:00:00 19,9 10,0 18,4 21,3 18,4 14 8 27 15 N 1020,0 20 37 0,0
10.07.2018 20:00:00 21,6 10,7 26,0 21,2 18,3 18 10 28 15 N 1019,7 20 60 0,0
10.07.2018 19:00:00 22,9 10,3 29,9 21,2 18,3 16 9 29 16 N 1019,5 20 60 0,0
10.07.2018 18:00:00 23,7 11,1 29,6 21,0 18,3 19 10 29 16 N 1019,7 20 60 0,0
10.07.2018 17:00:00 24,6 11,2 30,6 20,9 18,3 19 11 34 18 N 1019,9 20 56 0,0
10.07.2018 16:00:00 24,5 12,4 28,8 20,8 18,4 17 9 29 16 N 1019,9 20 47 0,0
10.07.2018 15:00:00 24,0 13,2 26,3 20,7 18,3 17 9 27 15 N 1020,3 20 28 0,0
10.07.2018 14:00:00 23,6 14,0 26,9 20,6 18,3 11 6 26 14 NNE 1020,6 20 33 0,0
10.07.2018 13:00:00 23,3 14,6 25,9 20,5 18,3 10 6 22 12 N 1020,9 20 19 0,0
10.07.2018 12:00:00 22,0 15,1 25,5 20,5 18,3 11 6 22 12 NNE 1021,4 20 31 0,0

tt = Température de l'air
td = dewpoint
tt 5cm = Température de l'air 5cm
tt -20cm = Température de l'air -20cm
tt -100cm = Température de l'air -100cm
ff = Vitesse du vent
fx = gusts
dd = Direction du vent
ppp = reduced air pressure
vv = visibility
sd = Ensoleillement
rr = Quantités de précipitations

stations d'obs. à proximité